[[{"header":{"parameterUnit":"m.s-1","parameterCategory":1,"la1":30.2991,"la2":30.254,"lo1":-89.0895,"lo2":-89.0444,"dy":0.0017,"dx":0.0017,"nx":28,"ny":28,"refTime":"2025-03-27T03:00:00:Z","depth":0,"parameterNumber":2,"parameterNumberName":"U-component_of_WINDS"},"data":[0,0,0,0,0,0,0,0,0,0,0,0,0,0,0,0,0,0,0,0,0,0,0,0,0,0,0,0,0,0,0,0,0,0,0,0,0,0,0,0,0,0,0,0,0,0,0,0,0,0,0,0,0,0,0,0,0,0,-4.0283,-4.0284,0,-4.0336,-4.0337,-4.0337,-4.0333,-4.0332,-4.0331,-4.033,-4.0386,-4.0388,-4.039,0,0,0,0,0,0,0,0,0,0,0,0,0,-4.018,-4.0182,-4.0283,-4.0284,-4.0284,-4.0336,-4.0337,-4.0337,-4.0333,-4.0332,-4.0331,-4.033,-4.0385,-4.0388,-4.039,0,0,0,0,0,0,0,0,0,0,0,0,0,-4.0228,-4.0182,-4.0283,-4.0288,-4.0289,-4.0336,-4.0337,-4.0338,-4.0333,-4.0332,-4.0331,-4.033,-4.0384,-4.0387,-4.0391,-4.0436,0,0,-4.0401,-4.0402,0,0,0,0,0,0,0,0,-4.0225,-4.0232,-4.0287,-4.0288,-4.0289,-4.0327,-4.0321,-4.037,-4.0334,-4.0317,-4.033,-4.0329,-4.0367,-4.0372,-4.0384,-4.0438,-4.044,-4.0401,-4.0403,-4.0405,-4.0406,0,0,0,0,0,0,0,-4.0222,-4.0229,-4.0304,-4.0288,-4.0289,-4.0289,-4.0294,-4.033,-4.0348,-4.0318,-4.0318,-4.0324,-4.0368,-4.0381,-4.0386,-4.0441,-4.0401,-4.0404,-4.0406,-4.0408,-4.0534,-4.0536,0,0,0,0,0,0,-4.0217,-4.0227,-4.0302,-4.0306,-4.0254,-4.0292,-4.0298,-4.0316,-4.0348,-4.0351,-4.0325,-4.0324,-4.0376,-4.0382,-4.0388,-4.0441,-4.0405,-4.0408,-4.041,-4.0533,-4.0535,-4.0536,0,0,0,0,0,0,-4.0215,-4.0224,-4.03,-4.0266,-4.0276,-4.0295,-4.0315,-4.0318,-4.0331,-4.0353,-4.0356,-4.0335,-4.0375,-4.0383,-4.0424,-4.0443,-4.0409,-4.0412,-4.0531,-4.0533,-4.0535,-4.0549,0,0,0,0,0,0,-4.0212,-4.0223,-4.024,-4.0267,-4.0278,-4.0335,-4.0316,-4.0319,-4.0337,-4.0335,-4.0364,-4.0367,-4.0375,-4.0419,-4.0427,-4.0447,-4.0415,-4.053,-4.0532,-4.0535,-4.0547,-4.0552,-4.0555,0,0,0,0,0,-4.0208,-4.0242,-4.0241,-4.025,-4.0299,-4.0336,-4.0342,-4.035,-4.0338,-4.0355,-4.037,-4.0366,-4.044,-4.0423,-4.0432,-4.0454,-4.0528,-4.0531,-4.0534,-4.0545,-4.0551,-4.0555,0,0,0,0,0,0,-4.0217,-4.0245,-4.0244,-4.0288,-4.0309,-4.0335,-4.0356,-4.0356,-4.0381,-4.0379,-4.0389,-4.0395,-4.0436,-4.0449,-4.0429,-4.0499,-4.0483,-4.0488,-4.0488,-4.0493,-4.0497,-4.0492,-4.0418,0,0,0,0,0,-4.0224,-4.0251,-4.0275,-4.0311,-4.0322,-4.0337,-4.0354,-4.0358,-4.0381,-4.039,-4.0408,-4.043,-4.0459,-4.0477,-4.0504,-4.055,-4.0556,-4.057,-4.0574,-4.0577,-4.0581,-4.0605,-4.0611,-4.0546,-4.0546,-4.0546,0,0,-4.0239,-4.0258,-4.0274,-4.0313,-4.033,-4.0358,-4.0345,-4.0376,-4.0396,-4.0395,-4.0434,-4.0448,-4.0474,-4.0517,-4.0537,-4.0529,-4.06,-4.0581,-4.0583,-4.0585,-4.0609,-4.0615,-4.062,-4.0548,-4.0548,-4.0547,0,0,-4.0279,-4.0297,-4.0328,-4.0346,-4.0372,-4.0383,-4.039,-4.0416,-4.0425,-4.0464,-4.0464,-4.049,-4.0539,-4.0557,-4.0573,-4.0622,-4.0619,-4.0631,-4.0651,-4.0675,-4.068,-4.0685,-4.0701,-4.0707,-4.0635,-4.0635,-4.0635,0,-4.0294,-4.0336,-4.0344,-4.0375,-4.0392,-4.0392,-4.0424,-4.0441,-4.0476,-4.0488,-4.0479,-4.054,-4.0558,-4.0605,-4.0617,-4.063,-4.0639,-4.0626,-4.0679,-4.0683,-4.0688,-4.0703,-4.071,-4.0636,-4.0636,-4.0636,-4.0635,0,-4.0352,-4.0381,-4.0404,-4.0436,-4.0456,-4.0487,-4.0501,-4.052,-4.0524,-4.0535,-4.0575,-4.0597,-4.0628,-4.064,-4.0644,-4.0688,-4.0683,-4.0677,-4.066,-4.0695,-4.071,-4.0716,-4.0637,-4.0637,-4.0637,-4.0636,0,0,-4.0397,-4.0435,-4.0443,-4.0457,-4.0487,-4.051,-4.0542,-4.0572,-4.0588,-4.0613,-4.0639,-4.0681,-4.0675,-4.0693,-4.07,-4.0721,-4.0757,-4.0712,-4.0713,-4.0718,-4.0806,-4.0809,-4.0815,-4.0757,-4.0758,-4.0759,-4.0803,0,-4.0439,-4.0494,-4.0504,-4.0552,-4.0579,-4.0581,-4.0608,-4.063,-4.0642,-4.0667,-4.0681,-4.071,-4.0701,-4.0712,-4.0733,-4.0748,-4.0774,-4.0745,-4.0781,-4.0782,-4.0772,-4.0823,-4.0827,-4.0867,-4.0809,-4.081,-4.0811,0,-4.0495,-4.052,-4.0571,-4.0597,-4.0609,-4.0633,-4.0662,-4.0686,-4.0711,-4.0719,-4.0739,-4.0743,-4.0776,-4.0761,-4.0807,-4.0786,-4.0802,-4.0812,-4.0814,-4.0816,-4.0797,-4.0825,-4.088,-4.0886,-4.082,-4.082,-4.0819,0,-4.0521,-4.0568,-4.0604,-4.0617,-4.0649,-4.0666,-4.068,-4.0704,-4.0722,-4.0748,-4.0759,-4.0789,-4.0805,-4.0828,-4.084,-4.0827,-4.0885,-4.087,-4.0891,-4.0891,-4.0901,-4.09,-4.0958,-4.0915,-4.0915,-4.0915,-4.0915,0,-4.0566,-4.0597,-4.0616,-4.0638,-4.0673,-4.0684,-4.0718,-4.0732,-4.0754,-4.0779,-4.0783,-4.0807,-4.0822,-4.0848,-4.0858,-4.0894,-4.0902,-4.0909,-4.0911,-4.0907,-4.0906,-4.0916,-4.0913,-4.0916,-4.0916,-4.0916,-4.0915,0,-4.06,-4.0614,-4.0654,-4.0681,-4.0689,-4.0713,-4.0736,-4.0758,-4.0771,-4.0803,-4.0811,-4.0831,-4.0862,-4.0877,-4.0915,-4.0922,-4.0963,-4.0964,-4.0954,-4.0954,-4.0974,-4.0971,-4.1038,-4.1047,-4.1,-4.1,-4.1001,0,-4.0626,-4.065,-4.068,-4.0696,-4.0711,-4.0738,-4.0756,-4.0769,-4.0788,-4.0819,-4.0837,-4.0868,-4.0893,-4.0943,-4.0961,-4.0991,-4.0992,-4.1013,-4.0996,-4.0992,-4.099,-4.0988,-4.099,-4.1016,-4.1016,-4.1016,-4.1017,0,-4.0671,-4.0678,-4.0703,-4.0732,-4.0753,-4.0776,-4.0799,-4.0813,-4.083,-4.0851,-4.0882,-4.0902,-4.0942,-4.0972,-4.1003,-4.1019,-4.102,-4.1023,-4.1029,-4.1024,-4.1017,-4.102,-4.096,-4.102,-4.102,-4.102,-4.1019,-4.1019,-4.0701,-4.0722,-4.0746,-4.0775,-4.0793,-4.0815,-4.0836,-4.0852,-4.0878,-4.0911,-4.0917,-4.095,-4.0976,-4.1018,-4.1034,-4.1061,-4.1056,-4.1065,-4.1067,-4.1069,-4.1069,-4.1014,-4.1067,-4.1067,-4.1067,-4.1067,-4.1067,0,-4.0745,-4.0761,-4.0787,-4.0819,-4.0841,-4.0842,-4.0867,-4.0886,-4.0915,-4.0938,-4.0963,-4.1,-4.103,-4.1051,-4.1082,-4.1099,-4.11,-4.1106,-4.1104,-4.1107,-4.1072,-4.1063,-4.1104,-4.1104,-4.1104,-4.1104,-4.1104,-4.1104,-4.077,-4.0805,-4.0814,-4.0859,-4.0875,-4.0907,-4.0921,-4.0941,-4.0959,-4.0999,-4.1024,-4.1038,-4.1061,-4.1093,-4.1121,-4.1127,-4.1137,-4.1143,-4.1148,-4.1114,-4.111,-4.1106,-4.1097,-4.1145,-4.1145,-4.1181,-4.1181,-4.1181]},{"header":{"parameterUnit":"m.s-1","parameterCategory":1,"la1":30.2991,"la2":30.254,"lo1":-89.0895,"lo2":-89.0444,"dy":0.0017,"dx":0.0017,"nx":28,"ny":28,"refTime":"2025-03-27T03:00:00:Z","depth":0,"parameterNumber":3,"parameterNumberName":"V-component_of_WINDS"},"data":[0,0,0,0,0,0,0,0,0,0,0,0,0,0,0,0,0,0,0,0,0,0,0,0,0,0,0,0,0,0,0,0,0,0,0,0,0,0,0,0,0,0,0,0,0,0,0,0,0,0,0,0,0,0,0,0,0,0,3.2734,3.2736,0,3.2886,3.2888,3.289,3.2963,3.2963,3.2963,3.2963,3.3125,3.3129,3.3133,0,0,0,0,0,0,0,0,0,0,0,0,0,3.2515,3.2518,3.2734,3.2736,3.2738,3.2886,3.2888,3.289,3.2963,3.2963,3.2963,3.2963,3.3123,3.3128,3.3134,0,0,0,0,0,0,0,0,0,0,0,0,0,3.2633,3.2519,3.2734,3.2792,3.2799,3.2885,3.2888,3.2891,3.2963,3.2963,3.2963,3.2963,3.3122,3.3128,3.3134,3.3176,0,0,3.3154,3.3157,0,0,0,0,0,0,0,0,3.2626,3.2641,3.2782,3.2788,3.2796,3.2906,3.287,3.2987,3.2963,3.2901,3.2963,3.2963,3.3052,3.3065,3.3093,3.3184,3.3191,3.3155,3.3159,3.3162,3.3164,0,0,0,0,0,0,0,3.2618,3.2635,3.2795,3.2784,3.2792,3.2813,3.283,3.2892,3.2976,3.2906,3.2912,3.2929,3.3056,3.3087,3.3098,3.3193,3.3155,3.3161,3.3165,3.3167,3.3329,3.3329,0,0,0,0,0,0,3.2599,3.2627,3.279,3.2799,3.2709,3.2817,3.2836,3.2871,3.2975,3.2991,3.2929,3.2932,3.3076,3.309,3.3104,3.3162,3.3162,3.3168,3.3172,3.3329,3.3329,3.3329,0,0,0,0,0,0,3.2594,3.2613,3.2784,3.2715,3.2738,3.2821,3.2859,3.2874,3.2904,3.2992,3.3008,3.2944,3.3076,3.3095,3.3158,3.3168,3.3171,3.3177,3.3328,3.3329,3.3329,3.3276,0,0,0,0,0,0,3.2587,3.2611,3.2625,3.2714,3.2741,3.2833,3.286,3.2877,3.2915,3.292,3.3011,3.3026,3.3078,3.3148,3.3164,3.3177,3.3182,3.3328,3.3328,3.3329,3.3277,3.3275,3.3273,0,0,0,0,0,3.2579,3.2605,3.2626,3.2645,3.2761,3.2833,3.2849,3.2907,3.2915,3.2932,3.2989,3.3023,3.3164,3.3154,3.3173,3.3188,3.3327,3.3328,3.3329,3.3278,3.3275,3.3273,0,0,0,0,0,0,3.2517,3.2618,3.2642,3.2697,3.2756,3.2845,3.2869,3.2901,3.296,3.2963,3.3034,3.3054,3.3112,3.3156,3.3143,3.3235,3.3249,3.3254,3.3204,3.3202,3.3199,3.3188,3.3187,0,0,0,0,0,3.2509,3.2557,3.2643,3.2684,3.2712,3.2785,3.2818,3.2858,3.2922,3.2948,3.3009,3.3073,3.3132,3.3169,3.3228,3.3284,3.3306,3.3304,3.3302,3.3299,3.3303,3.3338,3.3339,3.3332,3.3332,3.3332,0,0,3.2495,3.2556,3.2582,3.2673,3.2723,3.2773,3.2806,3.2857,3.2896,3.2957,3.302,3.3067,3.3143,3.3203,3.3233,3.3242,3.331,3.33,3.3298,3.3303,3.3339,3.334,3.334,3.3333,3.3333,3.3333,0,0,3.2494,3.2544,3.2584,3.2633,3.2708,3.2757,3.2766,3.2852,3.2885,3.2949,3.2997,3.3045,3.3144,3.3197,3.3237,3.3257,3.3292,3.3275,3.3263,3.3296,3.3297,3.3298,3.3307,3.3309,3.3278,3.3278,3.3278,0,3.2467,3.2542,3.2601,3.265,3.269,3.2745,3.2788,3.2834,3.2925,3.2953,3.2961,3.3089,3.3143,3.3218,3.3223,3.3252,3.3268,3.3265,3.3292,3.3293,3.3295,3.3305,3.3308,3.3275,3.3276,3.3276,3.3276,0,3.2507,3.2558,3.2582,3.2667,3.2709,3.2755,3.2823,3.2859,3.2895,3.2944,3.301,3.3078,3.3152,3.3173,3.3209,3.3253,3.3257,3.3277,3.3293,3.3292,3.3303,3.3307,3.3272,3.3273,3.3273,3.3274,0,0,3.2471,3.2588,3.2596,3.2636,3.2723,3.2766,3.2815,3.2886,3.2917,3.2978,3.3023,3.3107,3.3127,3.3172,3.3215,3.3244,3.3258,3.3262,3.3265,3.326,3.3314,3.3299,3.3302,3.3281,3.3282,3.3283,3.3309,0,3.2484,3.2572,3.2627,3.2694,3.2744,3.2799,3.2842,3.2902,3.2949,3.3,3.3053,3.3112,3.3133,3.316,3.3192,3.325,3.3271,3.3249,3.3327,3.3328,3.3307,3.3307,3.3291,3.3312,3.3313,3.3314,3.3314,0,3.251,3.2568,3.264,3.2724,3.2747,3.2784,3.2855,3.2902,3.2973,3.3005,3.3055,3.3099,3.3156,3.3166,3.3247,3.3231,3.3266,3.33,3.3302,3.3313,3.3322,3.332,3.332,3.3324,3.3321,3.332,3.332,0,3.2479,3.2576,3.2632,3.2664,3.2762,3.2788,3.2831,3.29,3.294,3.3003,3.303,3.3099,3.3137,3.3191,3.3253,3.3253,3.3329,3.3343,3.3359,3.3358,3.3374,3.3372,3.3381,3.3393,3.3393,3.3393,3.3393,0,3.2488,3.253,3.2619,3.2654,3.2704,3.2768,3.2816,3.2864,3.2926,3.2973,3.3024,3.3068,3.3146,3.32,3.3249,3.331,3.3326,3.3356,3.3369,3.3352,3.3349,3.3377,3.3378,3.3394,3.3394,3.3394,3.3394,0,3.2462,3.2523,3.2588,3.2675,3.2698,3.2732,3.2808,3.2845,3.2895,3.2954,3.2971,3.305,3.3117,3.3183,3.3273,3.3306,3.3367,3.3383,3.3342,3.335,3.3363,3.3361,3.3392,3.34,3.3405,3.3405,3.3405,0,3.2464,3.2498,3.2589,3.2623,3.2664,3.2718,3.2759,3.2824,3.2865,3.2948,3.2976,3.3045,3.3104,3.3208,3.3275,3.3345,3.3365,3.3371,3.3376,3.3358,3.3367,3.3365,3.337,3.3369,3.3368,3.3368,3.3368,0,3.2463,3.2492,3.2547,3.2613,3.266,3.2716,3.2774,3.28,3.2877,3.2921,3.2988,3.3034,3.3125,3.3195,3.3272,3.3319,3.3358,3.3365,3.3373,3.3357,3.3333,3.3348,3.3338,3.3365,3.3365,3.3365,3.3365,3.3366,3.2453,3.2486,3.2555,3.2616,3.2666,3.272,3.2759,3.2813,3.287,3.2948,3.2984,3.3052,3.3124,3.3232,3.3278,3.3335,3.3345,3.3355,3.3359,3.3361,3.3358,3.3322,3.3349,3.3349,3.3349,3.3349,3.3349,0,3.2455,3.2503,3.2558,3.2637,3.2685,3.2714,3.2781,3.282,3.2879,3.2942,3.2999,3.3078,3.3146,3.3218,3.3291,3.3322,3.3342,3.334,3.3339,3.335,3.3343,3.333,3.3323,3.3323,3.3323,3.3323,3.3323,3.3323,3.2463,3.2521,3.2558,3.2643,3.2691,3.2756,3.2792,3.2843,3.2893,3.2978,3.3034,3.308,3.3148,3.3226,3.3291,3.3311,3.3336,3.3329,3.3354,3.3348,3.335,3.3351,3.3339,3.3334,3.3334,3.3356,3.3356,3.3356]}]]